TimeCAT,TemperatureF,Dew PointF,Humidity,Sea Level PressureIn,VisibilityMPH,Wind Direction,Wind SpeedMPH,Gust SpeedMPH,PrecipitationIn,Events,Conditions,WindDirDegrees,DateUTC
12:00 AM,51.8,19.4,28,30.09,-9999.0,SW,13.8,-,N/A,,Clear,220,2013-08-30 22:00:00
1:00 AM,50.0,19.4,30,30.04,-9999.0,SSW,13.8,-,N/A,,Clear,210,2013-08-30 23:00:00
3:00 AM,48.2,17.6,30,30.04,-9999.0,South,12.7,-,N/A,,Clear,190,2013-08-31 01:00:00
4:00 AM,46.4,15.8,29,30.04,-9999.0,South,12.7,-,N/A,,Clear,190,2013-08-31 02:00:00
5:00 AM,42.8,15.8,34,30.04,-9999.0,SSW,9.2,-,N/A,,Clear,210,2013-08-31 03:00:00
6:00 AM,41.0,15.8,36,30.06,-9999.0,SSW,5.8,-,N/A,,Clear,200,2013-08-31 04:00:00
7:00 AM,42.8,15.8,34,30.09,-9999.0,South,6.9,-,N/A,,Clear,180,2013-08-31 05:00:00
8:00 AM,46.4,15.8,29,30.12,-9999.0,South,12.7,-,N/A,,Clear,190,2013-08-31 06:00:00
9:00 AM,50.0,14.0,24,30.15,-9999.0,South,13.8,-,N/A,,Clear,180,2013-08-31 07:00:00
10:00 AM,51.8,12.2,21,30.15,-9999.0,South,13.8,-,N/A,,Clear,180,2013-08-31 08:00:00
11:00 AM,53.6,10.4,18,30.15,-9999.0,SSW,15.0,-,N/A,,Clear,200,2013-08-31 09:00:00
12:00 PM,57.2,10.4,16,30.12,-9999.0,South,13.8,-,N/A,,Clear,180,2013-08-31 10:00:00
1:00 PM,59.0,8.6,14,30.09,-9999.0,SW,11.5,-,N/A,,Clear,230,2013-08-31 11:00:00
2:00 PM,62.6,6.8,11,30.06,-9999.0,SSW,11.5,-,N/A,,Clear,210,2013-08-31 12:00:00
3:00 PM,64.4,8.6,11,30.06,-9999.0,SW,12.7,-,N/A,,Clear,220,2013-08-31 13:00:00
4:00 PM,64.4,8.6,11,30.04,-9999.0,SSW,10.4,-,N/A,,Clear,200,2013-08-31 14:00:00
5:00 PM,62.6,8.6,12,30.04,-9999.0,SW,9.2,-,N/A,,Clear,220,2013-08-31 15:00:00
6:00 PM,60.8,6.8,12,30.06,-9999.0,SSW,10.4,-,N/A,,Clear,200,2013-08-31 16:00:00
7:00 PM,57.2,6.8,13,30.06,-9999.0,SSW,5.8,-,N/A,,Clear,200,2013-08-31 17:00:00
8:00 PM,53.6,6.8,15,30.09,-9999.0,South,6.9,-,N/A,,Clear,190,2013-08-31 18:00:00
9:00 PM,51.8,8.6,18,30.12,-9999.0,South,6.9,-,N/A,,Clear,190,2013-08-31 19:00:00
10:00 PM,50.0,8.6,19,30.12,-9999.0,SSW,6.9,-,N/A,,Clear,200,2013-08-31 20:00:00
11:00 PM,48.2,8.6,20,30.12,-9999.0,SSW,6.9,-,N/A,,Clear,200,2013-08-31 21:00:00